When you browse on this site, cookies collect data to enhance your experience and personalize the content and advertising you see.
Visit our Privacy Policy to learn more. By continuing to use the site, you agree to this use of cookies and data.
EN

Hourly Weather Debrecen

Today, 25 September, Friday

Time Temperature Precipitation Wind Pressure Humidity
00:00 +18°C° 0 mm 2 mps 746 mmHg 63%
01:00 +18°C° 0 mm 3 mps 746 mmHg 69%
02:00 +18°C° 0 mm 3 mps 746 mmHg 70%
03:00 +17°C° 0 mm 3 mps 746 mmHg 72%
04:00 +17°C° 0 mm 3 mps 745 mmHg 73%
05:00 +18°C° 0 mm 3 mps 745 mmHg 69%
06:00 +19°C° 0 mm 3 mps 744 mmHg 66%
07:00 +20°C° 0 mm 3 mps 744 mmHg 58%
08:00 +22°C° 0 mm 4 mps 744 mmHg 52%
09:00 +25°C° 0 mm 4 mps 743 mmHg 45%
10:00 +27°C° 0 mm 5 mps 743 mmHg 38%
11:00 +28°C° 0 mm 6 mps 742 mmHg 36%
12:00 +29°C° 0 mm 7 mps 742 mmHg 34%
13:00 +31°C° 0 mm 8 mps 741 mmHg 31%
14:00 +27°C° 0 mm 7 mps 740 mmHg 41%
15:00 +24°C° 0 mm 6 mps 740 mmHg 51%
16:00 +22°C° 0 mm 5 mps 739 mmHg 61%
17:00 +21°C° 0.4 mm 5 mps 739 mmHg 68%
18:00 +20°C° 0.4 mm 5 mps 739 mmHg 74%
19:00 +19°C° 0.4 mm 5 mps 739 mmHg 81%
20:00 +19°C° 0.4 mm 5 mps 738 mmHg 80%
21:00 +19°C° 0.4 mm 5 mps 738 mmHg 80%
22:00 +19°C° 0.4 mm 5 mps 738 mmHg 79%
23:00 +17°C° 0.4 mm 5 mps 737 mmHg 80%

Tomorrow, 26 September, Saturday

Time Temperature Precipitation Wind Pressure Humidity
00:00 +17°C° 0.4 mm 5 mps 736 mmHg 80%
01:00 +17°C° 0.4 mm 5 mps 736 mmHg 81%
02:00 +17°C° 0.5 mm 5 mps 735 mmHg 81%
03:00 +17°C° 0.5 mm 5 mps 735 mmHg 80%
04:00 +17°C° 0.5 mm 5 mps 734 mmHg 79%
05:00 +17°C° 1.5 mm 5 mps 734 mmHg 83%
06:00 +17°C° 1.5 mm 5 mps 734 mmHg 86%
07:00 +17°C° 1.5 mm 6 mps 734 mmHg 90%
08:00 +16°C° 2.6 mm 5 mps 735 mmHg 88%
09:00 +17°C° 2.6 mm 4 mps 735 mmHg 87%
10:00 +17°C° 2.6 mm 3 mps 736 mmHg 85%
11:00 +17°C° 0.4 mm 4 mps 736 mmHg 83%
12:00 +15°C° 0.4 mm 4 mps 736 mmHg 81%
13:00 +15°C° 0.4 mm 5 mps 737 mmHg 79%
14:00 +15°C° 0.4 mm 4 mps 737 mmHg 78%
15:00 +16°C° 0.4 mm 3 mps 737 mmHg 77%
16:00 +16°C° 0.4 mm 2 mps 737 mmHg 76%
17:00 +15°C° 0 mm 2 mps 737 mmHg 80%
18:00 +15°C° 0 mm 2 mps 737 mmHg 83%
19:00 +14°C° 0 mm 1 mps 737 mmHg 86%
20:00 +14°C° 0 mm 1 mps 737 mmHg 86%
21:00 +14°C° 0 mm 1 mps 738 mmHg 85%
22:00 +14°C° 0 mm 2 mps 738 mmHg 85%
23:00 +13°C° 0 mm 2 mps 738 mmHg 84%

Day after tomorrow, 27 September, Sunday

Time Temperature Precipitation Wind Pressure Humidity
00:00 +13°C° 0 mm 2 mps 738 mmHg 83%
01:00 +13°C° 0 mm 2 mps 738 mmHg 82%
02:00 +11°C° 0 mm 3 mps 739 mmHg 82%
03:00 +10°C° 0 mm 3 mps 739 mmHg 82%
04:00 +10°C° 0 mm 3 mps 739 mmHg 81%
05:00 +10°C° 0 mm 4 mps 740 mmHg 79%
06:00 +10°C° 0 mm 4 mps 740 mmHg 76%
07:00 +10°C° 0 mm 4 mps 741 mmHg 73%
08:00 +10°C° 0 mm 5 mps 741 mmHg 66%
09:00 +13°C° 0 mm 6 mps 742 mmHg 60%
10:00 +14°C° 0 mm 7 mps 743 mmHg 53%
11:00 +15°C° 0 mm 7 mps 743 mmHg 50%
12:00 +16°C° 0 mm 7 mps 744 mmHg 47%
13:00 +17°C° 0 mm 7 mps 744 mmHg 45%
14:00 +17°C° 0 mm 6 mps 745 mmHg 45%
15:00 +17°C° 0 mm 5 mps 745 mmHg 46%
16:00 +17°C° 0 mm 4 mps 745 mmHg 47%
17:00 +15°C° 0 mm 4 mps 746 mmHg 52%
18:00 +13°C° 0 mm 3 mps 746 mmHg 58%
19:00 +12°C° 0 mm 3 mps 747 mmHg 64%
20:00 +11°C° 0 mm 3 mps 748 mmHg 67%
21:00 +12°C° 0 mm 2 mps 748 mmHg 71%
22:00 +10°C° 0 mm 2 mps 749 mmHg 75%
23:00 +10°C° 0 mm 2 mps 748 mmHg 75%

28 September, Monday

Time Temperature Precipitation Wind Pressure Humidity
00:00 +10°C° 0 mm 3 mps 748 mmHg 76%
01:00 +10°C° 0 mm 4 mps 747 mmHg 76%
02:00 +11°C° 0 mm 4 mps 747 mmHg 74%
03:00 +10°C° 0 mm 5 mps 747 mmHg 72%
04:00 +10°C° 0 mm 5 mps 746 mmHg 70%
05:00 +10°C° 0.1 mm 5 mps 746 mmHg 71%
06:00 +12°C° 0.1 mm 4 mps 746 mmHg 71%
07:00 +12°C° 0.1 mm 4 mps 746 mmHg 71%
08:00 +14°C° 0 mm 4 mps 746 mmHg 67%
09:00 +16°C° 0 mm 3 mps 746 mmHg 62%
10:00 +18°C° 0 mm 3 mps 746 mmHg 57%
11:00 +17°C° 0.3 mm 3 mps 746 mmHg 65%
12:00 +17°C° 0.3 mm 3 mps 746 mmHg 72%
13:00 +16°C° 0.3 mm 3 mps 746 mmHg 80%
14:00 +16°C° 0.2 mm 3 mps 746 mmHg 81%
15:00 +15°C° 0.2 mm 4 mps 746 mmHg 81%
16:00 +15°C° 0.2 mm 5 mps 745 mmHg 82%
17:00 +14°C° 1.2 mm 4 mps 746 mmHg 86%
18:00 +14°C° 1.2 mm 4 mps 746 mmHg 90%
19:00 +14°C° 1.2 mm 3 mps 746 mmHg 93%
20:00 +13°C° 0 mm 3 mps 746 mmHg 93%
21:00 +14°C° 0 mm 2 mps 746 mmHg 93%
22:00 +14°C° 0 mm 2 mps 746 mmHg 93%
23:00 +13°C° 0 mm 2 mps 746 mmHg 93%

29 September, Tuesday

Time Temperature Precipitation Wind Pressure Humidity
00:00 +13°C° 0 mm 2 mps 746 mmHg 93%
01:00 +13°C° 0 mm 2 mps 746 mmHg 93%
02:00 +13°C° 0 mm 2 mps 746 mmHg 92%
03:00 +13°C° 0 mm 2 mps 746 mmHg 92%
04:00 +13°C° 0 mm 2 mps 746 mmHg 92%
05:00 +13°C° 0 mm 2 mps 746 mmHg 91%
06:00 +12°C° 0 mm 3 mps 747 mmHg 90%
07:00 +11°C° 0 mm 4 mps 747 mmHg 89%
08:00 +12°C° 0 mm 3 mps 747 mmHg 86%
09:00 +13°C° 0 mm 3 mps 747 mmHg 84%
10:00 +15°C° 0 mm 2 mps 747 mmHg 81%
11:00 +14°C° 0.2 mm 3 mps 747 mmHg 80%
12:00 +14°C° 0.2 mm 3 mps 747 mmHg 79%
13:00 +14°C° 0.2 mm 3 mps 747 mmHg 78%
14:00 +16°C° 0.2 mm 3 mps 747 mmHg 77%
15:00 +16°C° 0.2 mm 3 mps 747 mmHg 75%
16:00 +16°C° 0.2 mm 3 mps 747 mmHg 73%
17:00 +14°C° 0.2 mm 3 mps 747 mmHg 79%
18:00 +13°C° 0.2 mm 3 mps 747 mmHg 84%
19:00 +12°C° 0.2 mm 3 mps 747 mmHg 89%
20:00 +12°C° 0.1 mm 3 mps 747 mmHg 89%
21:00 +12°C° 0.1 mm 3 mps 747 mmHg 88%
22:00 +12°C° 0.1 mm 3 mps 747 mmHg 88%
23:00 +11°C° 0 mm 3 mps 747 mmHg 89%

30 September, Wednesday

Time Temperature Precipitation Wind Pressure Humidity
00:00 +11°C° 0 mm 3 mps 747 mmHg 90%
01:00 +11°C° 0 mm 3 mps 747 mmHg 90%
02:00 +11°C° 0 mm 3 mps 747 mmHg 88%
03:00 +11°C° 0 mm 3 mps 747 mmHg 86%
04:00 +11°C° 0 mm 4 mps 747 mmHg 84%
05:00 +11°C° 0 mm 4 mps 747 mmHg 83%
06:00 +12°C° 0 mm 4 mps 746 mmHg 81%
07:00 +12°C° 0 mm 4 mps 746 mmHg 80%
08:00 +12°C° 0.1 mm 4 mps 746 mmHg 79%
09:00 +12°C° 0.1 mm 4 mps 746 mmHg 78%
10:00 +12°C° 0.1 mm 4 mps 746 mmHg 77%
11:00 +13°C° 0.2 mm 4 mps 746 mmHg 77%
12:00 +13°C° 0.2 mm 3 mps 745 mmHg 78%
13:00 +13°C° 0.2 mm 3 mps 745 mmHg 79%
14:00 +14°C° 0.1 mm 2 mps 745 mmHg 78%
15:00 +15°C° 0.1 mm 1 mps 745 mmHg 78%
16:00 +15°C° 0.1 mm 1 mps 745 mmHg 78%
17:00 +15°C° 0.1 mm 1 mps 745 mmHg 79%
18:00 +14°C° 0.1 mm 1 mps 745 mmHg 81%
19:00 +14°C° 0.1 mm 2 mps 745 mmHg 83%
20:00 +14°C° 0.2 mm 2 mps 745 mmHg 82%
21:00 +14°C° 0.2 mm 2 mps 745 mmHg 82%
22:00 +13°C° 0.2 mm 3 mps 745 mmHg 81%
23:00 +12°C° 0.8 mm 3 mps 745 mmHg 84%
Show more